Wind_Speed
12 14 14 14 14 14 13 13 13 13 13 12 11 10 9 10 13 13 14 15 17 18 18 20 20 19 19 19 20 20 20 20 18 17 18 18 18 17 16 15 14 13 12 11 10 9 7 7 7 8 8 9 9 9 9 8 7 7 6 5 5 5 4
16 17 17 17 17 16 16 17 16 15 15 14 12 11 10 10 12 13 14 16 17 19 20 20 19 18 18 18 19 20 20 18 17 18 19 19 19 19 18 17 16 14 13 12 11 10 9 8 8 9 8 8 9 9 9 8 7 7 6 5 6 5 4
19 20 20 20 19 19 19 19 19 19 18 16 15 14 13 12 13 13 15 17 17 19 19 19 19 18 18 19 20 20 19 19 19 19 19 20 20 19 18 17 15 14 13 13 12 11 10 9 10 9 8 8 9 8 8 7 7 8 7 7 7 6 5
23 23 23 22 22 22 21 21 21 21 20 19 18 16 15 16 16 15 17 18 18 19 18 18 19 19 19 20 22 21 21 21 20 20 20 21 20 19 17 15 14 14 13 12 12 11 10 9 9 8 7 8 8 8 7 7 8 9 9 8 8 7 7
25 26 26 25 24 25 25 25 24 22 20 20 20 17 15 17 18 18 19 19 18 19 18 18 20 20 19 21 23 23 23 23 22 22 22 22 20 18 16 15 14 14 13 12 11 11 9 8 8 7 7 7 7 7 7 7 9 11 10 10 9 8 8
28 28 28 29 29 28 27 28 26 23 21 20 21 19 16 17 19 19 20 20 19 20 20 20 21 21 20 21 23 23 24 25 23 22 22 21 19 16 15 15 15 14 14 13 11 9 9 8 8 8 8 8 7 7 7 8 9 10 11 10 10 9 9
29 29 30 33 34 32 30 29 28 26 23 22 21 20 18 18 19 20 20 21 22 21 21 21 22 22 21 21 23 24 25 25 23 21 20 19 17 16 15 16 16 15 14 12 10 9 9 9 10 9 9 9 8 7 8 9 9 10 11 11 11 10 10
30 30 31 34 36 34 31 30 29 27 24 23 21 20 20 20 20 21 22 23 24 23 22 22 22 22 21 21 23 25 25 24 22 20 19 17 16 16 16 16 15 14 13 11 9 9 9 10 10 10 10 10 9 8 9 9 10 11 11 11 11 11 11
32 32 32 34 36 34 32 29 28 26 24 22 21 20 20 21 22 24 24 24 24 24 23 22 22 22 21 22 24 24 23 22 20 19 18 16 15 16 17 16 14 14 13 11 9 9 9 10 10 11 12 12 11 10 9 9 10 11 10 10 10 11 11
31 32 33 35 35 33 32 29 27 26 25 23 22 21 21 21 23 25 25 23 23 22 22 20 20 20 21 22 22 21 20 18 17 17 17 16 15 16 17 15 14 14 12 10 9 9 10 10 10 11 12 12 11 10 9 9 10 11 10 10 10 11 11
27 30 32 34 33 31 30 29 28 27 26 24 22 21 22 22 23 25 26 24 22 21 20 19 19 20 20 20 19 18 17 16 16 17 16 16 15 16 16 15 14 13 11 10 10 10 10 11 11 11 12 12 11 10 8 8 10 10 9 10 10 10 10
25 27 28 30 31 29 29 29 28 26 25 25 23 20 20 21 23 25 26 24 23 21 20 20 20 20 20 19 18 18 17 16 16 16 16 15 15 15 15 14 14 13 11 11 11 11 11 12 11 11 12 13 12 11 9 9 10 9 8 9 10 9 9
25 24 23 25 26 26 27 28 26 24 23 24 23 19 18 19 22 24 24 23 22 20 20 20 20 20 21 20 18 17 17 16 16 15 15 14 14 14 14 13 13 12 12 12 12 12 12 12 12 12 13 13 12 11 9 8 10 9 8 8 9 8 9
25 20 18 20 23 24 25 25 23 21 20 21 21 19 17 18 20 22 24 23 20 20 21 20 20 20 20 19 17 16 16 16 16 15 15 14 13 13 13 13 13 12 12 13 13 13 13 12 12 13 13 13 12 11 8 7 9 9 8 8 8 8 8
22 16 14 16 20 22 23 23 21 19 19 19 18 18 18 18 19 22 24 24 21 21 21 20 20 21 20 20 19 17 16 17 18 17 16 14 14 14 14 14 13 13 13 13 13 12 12 12 12 12 13 13 12 10 8 8 8 8 7 7 8 8 8
18 12 11 13 15 17 20 21 20 20 20 19 18 18 18 18 19 21 23 25 24 22 21 21 21 21 20 21 20 19 19 20 21 19 17 15 15 15 15 15 14 14 14 14 13 12 13 13 12 12 12 12 11 9 8 8 7 7 7 7 7 8 8
15 12 11 10 9 14 18 18 19 20 21 19 19 20 20 19 19 21 23 25 25 23 23 23 23 21 20 21 21 21 22 23 23 21 18 17 16 16 16 16 15 15 14 14 13 13 13 13 13 13 13 12 10 8 7 7 8 8 8 7 7 8 8
13 11 11 9 4 7 13 15 17 20 21 20 21 21 21 20 20 21 23 25 25 24 25 25 24 22 21 21 22 22 23 24 23 20 18 16 16 16 16 16 15 15 15 14 13 13 13 13 13 13 12 11 10 9 8 8 8 8 8 8 8 9 9
13 12 11 9 4 2 7 12 15 18 19 20 21 22 23 22 22 23 24 25 25 25 26 25 24 23 22 21 22 22 23 24 21 17 16 16 16 17 16 16 15 15 15 14 14 13 13 13 13 13 12 11 11 10 9 8 8 8 8 8 8 9 9
13 12 12 11 8 5 6 10 13 15 17 19 22 23 24 24 26 27 27 26 24 23 23 23 21 20 21 21 23 23 23 22 18 15 16 17 17 17 16 16 16 15 15 15 15 14 14 14 14 13 13 12 11 10 9 9 8 8 9 9 8 8 8
12 12 12 12 11 10 11 12 14 15 16 19 22 23 23 25 27 27 24 22 22 21 21 20 19 19 20 22 23 21 19 18 16 16 17 17 17 16 16 16 16 16 17 16 16 16 15 15 15 14 13 12 11 10 9 10 9 10 10 10 9 8 8
11 11 11 12 13 14 15 16 17 18 18 19 21 22 23 25 25 24 23 22 22 22 21 21 21 20 19 18 16 15 14 16 16 17 17 17 17 16 16 16 16 16 15 14 14 14 14 14 14 14 13 12 12 11 10 10 10 10 11 11 10 9 9
11 10 10 12 13 15 18 19 20 20 20 21 21 22 23 23 23 24 25 25 24 22 22 23 23 21 17 14 12 12 14 16 16 17 18 17 17 17 16 16 15 15 14 13 13 13 12 12 12 12 13 13 13 12 12 11 11 12 11 11 11 11 10
10 8 8 10 12 15 17 19 20 20 21 21 21 21 22 22 22 24 25 26 24 21 22 24 24 22 18 15 14 15 15 16 17 17 18 17 17 17 17 17 16 15 15 14 14 14 14 13 13 14 14 14 14 14 13 13 13 13 13 12 12 12 11
10 9 8 9 10 13 16 17 17 17 18 20 19 18 19 20 22 23 23 24 23 22 23 23 22 21 19 17 17 17 17 17 17 17 18 17 17 17 18 19 18 16 16 15 15 16 16 15 15 16 16 16 15 15 15 15 15 15 14 14 13 13 13
9 9 10 10 9 10 14 15 15 14 15 17 17 18 18 18 20 21 21 22 23 24 25 24 22 20 18 18 18 18 18 19 19 18 18 18 18 18 19 19 18 17 17 16 16 17 17 16 16 17 17 16 16 16 16 16 16 16 16 15 15 15 14
9 9 10 10 9 9 10 12 12 13 14 15 16 17 17 17 18 18 19 21 23 24 24 24 22 19 17 18 19 19 18 18 18 17 18 19 19 20 20 20 19 18 18 17 17 18 18 18 17 17 17 16 16 16 16 16 16 16 16 16 15 15 14
10 9 10 10 10 8 8 9 10 11 12 13 14 14 13 15 15 15 17 21 22 22 22 20 19 17 17 18 20 20 19 18 17 17 17 18 18 19 20 20 20 20 19 18 19 19 19 18 18 17 17 17 17 16 16 16 15 15 15 14 14 14 14
11 10 10 11 11 9 7 8 10 10 10 11 12 11 11 15 17 18 20 21 20 21 21 20 19 17 17 19 19 19 19 19 18 18 18 18 19 19 20 21 21 21 20 19 20 20 19 19 18 18 18 18 17 16 15 15 15 14 14 14 14 15 16
10 11 11 10 10 9 5 5 8 10 10 8 8 10 14 18 19 19 20 21 20 20 19 20 21 18 18 20 20 18 20 22 21 21 20 19 19 20 20 21 21 21 20 20 21 21 20 20 20 19 19 19 18 17 16 16 16 15 15 16 16 17 18
10 10 9 8 8 8 6 4 6 7 8 6 6 11 18 20 17 15 16 17 20 22 20 19 20 19 19 21 21 20 22 22 21 21 21 20 20 20 21 21 21 20 21 21 22 22 21 21 20 20 20 20 19 19 18 19 18 18 18 19 19 20 21
10 8 6 5 5 7 7 6 6 4 6 9 9 12 15 17 16 16 15 14 16 20 19 16 17 19 20 21 21 21 21 20 19 19 20 21 21 21 22 22 22 22 22 22 22 22 22 22 21 21 21 21 21 20 20 20 20 20 21 22 23 24 25
9 6 4 4 4 6 8 8 8 5 3 8 11 11 11 14 16 16 14 13 15 17 17 15 16 18 20 21 20 21 21 20 20 21 20 21 22 21 22 23 23 24 25 24 24 23 23 23 23 23 23 22 22 21 21 22 22 23 25 26 26 26 26
7 4 3 4 4 5 8 9 10 7 2 5 8 8 9 12 16 17 15 15 16 16 15 15 16 17 19 20 20 20 20 19 20 21 21 21 21 21 21 23 24 26 27 27 26 25 24 24 24 24 24 24 23 23 23 23 25 27 29 29 28 27 24
5 4 3 4 5 5 6 8 10 8 3 2 4 4 5 10 16 19 18 16 16 15 13 14 15 16 17 18 18 19 19 19 19 20 19 19 19 20 22 24 26 26 27 28 28 26 25 26 26 26 25 24 23 23 23 25 27 28 28 25 23 22 19
5 4 2 4 5 7 7 7 8 7 5 1 2 2 3 8 14 18 19 19 19 18 16 14 14 15 15 16 16 17 18 19 19 20 19 19 21 23 25 25 25 24 25 27 27 28 29 29 29 28 26 23 22 21 22 23 22 20 18 17 16 16 15
7 5 3 2 5 7 8 7 5 4 4 2 2 2 2 7 12 15 17 17 18 19 18 17 16 16 16 17 17 17 18 19 20 22 22 21 22 23 26 28 27 27 26 27 28 29 30 30 30 29 26 22 20 20 20 19 16 14 13 13 13 14 15
Wind_Direction
278 277 279 283 287 288 285 279 271 268 266 269 278 274 260 248 243 243 246 245 239 229 222 220 215 212 212 216 222 219 209 203 199 201 204 207 212 210 208 212 219 222 218 217 221 218 221 232 230 223 221 217 210 209 211 204 189 185 188 190 197 204 206
273 273 275 277 280 281 280 278 273 269 265 261 259 262 262 252 242 239 241 243 239 230 223 221 215 213 216 219 223 221 211 204 201 206 208 208 212 210 208 215 219 220 220 216 217 218 218 223 226 221 219 218 214 210 207 200 189 186 187 192 200 209 213
273 273 273 273 275 275 274 275 273 268 265 261 253 246 244 246 244 240 241 242 239 231 225 223 218 216 220 222 223 220 215 209 206 209 209 210 214 212 212 219 220 218 221 218 215 219 219 220 226 223 211 213 220 216 210 205 198 192 194 203 209 211 215
273 274 276 276 276 274 271 270 268 266 266 266 260 248 239 239 239 238 240 241 241 236 227 222 219 218 220 220 218 215 213 211 207 207 209 211 214 215 216 222 221 216 219 221 217 217 220 220 229 232 214 206 212 214 214 210 203 201 203 211 214 212 214
273 275 277 276 273 272 271 268 266 267 270 272 270 262 247 239 237 237 238 238 239 237 229 224 221 218 218 218 216 212 210 210 207 206 210 214 215 216 218 221 222 216 215 221 217 210 214 213 218 232 230 219 211 205 210 212 208 208 210 214 218 218 217
275 276 276 276 273 271 269 268 269 270 271 273 273 269 257 242 236 237 239 238 237 233 228 223 220 220 219 215 212 210 209 209 209 209 212 217 217 216 218 220 222 218 214 217 214 204 206 207 210 220 227 229 223 208 209 218 218 215 215 220 226 227 225
275 275 274 274 274 272 270 270 272 273 275 277 277 276 269 252 241 237 237 235 232 228 226 223 218 219 219 213 207 206 207 209 211 213 215 216 215 216 219 221 221 219 213 211 210 205 206 208 211 217 222 227 229 222 218 222 225 222 222 226 232 233 231
274 272 269 270 271 273 274 274 274 275 278 280 278 276 270 259 249 240 232 229 227 222 222 223 218 214 213 210 207 206 208 210 211 213 215 213 213 216 220 224 224 222 218 213 208 207 210 212 214 217 223 227 228 225 222 225 229 230 231 233 235 237 235
275 271 267 266 267 270 273 275 276 275 274 273 272 271 268 260 251 243 234 227 225 221 220 220 217 212 208 208 210 210 212 213 211 211 213 212 212 218 223 225 222 219 218 216 210 208 213 219 218 218 225 230 228 220 214 224 232 233 237 239 237 240 239
277 271 266 263 263 265 267 269 269 267 267 268 268 269 267 258 249 246 241 233 226 222 222 220 220 217 212 211 215 216 214 214 214 215 215 211 212 221 225 224 222 221 219 215 214 214 218 222 221 222 230 233 231 224 212 219 230 231 235 241 240 241 241
284 274 267 263 261 260 259 260 260 259 260 263 265 265 261 255 249 245 244 240 232 224 221 220 220 221 220 219 221 223 218 213 215 219 218 213 215 223 224 219 217 221 220 217 219 220 219 222 223 226 229 229 229 230 216 214 230 232 229 234 237 239 240
299 285 272 265 261 257 252 250 252 254 254 256 261 264 257 252 249 243 240 239 234 224 219 218 218 220 225 224 221 224 224 218 219 224 222 215 213 220 223 219 217 220 221 218 219 220 218 221 224 225 229 231 233 236 226 213 226 234 226 226 231 234 238
309 293 274 263 257 252 248 244 245 247 249 250 253 257 253 247 245 242 240 239 234 228 223 220 218 221 227 229 224 222 226 228 226 226 225 218 214 220 225 222 221 221 220 217 217 219 218 220 224 224 230 234 234 239 236 219 223 231 225 225 230 233 237
313 293 267 256 248 242 242 242 240 238 239 243 245 245 245 244 241 239 239 237 232 229 228 225 224 226 231 236 234 228 228 233 230 222 220 217 216 225 229 226 224 223 220 216 216 219 219 219 223 226 231 232 230 232 229 219 226 228 222 228 237 239 239
320 297 264 254 244 236 235 236 233 227 229 235 238 237 238 239 238 236 235 233 230 228 228 226 226 229 231 235 235 232 230 234 232 225 220 218 217 222 227 228 227 225 221 218 216 216 218 220 221 223 227 229 231 230 217 214 229 232 226 233 241 241 239
325 311 279 265 246 231 230 231 227 221 222 228 231 232 235 235 234 232 229 228 227 227 226 226 229 231 229 228 228 227 227 229 230 225 219 217 217 218 222 224 224 221 219 218 215 212 216 219 215 213 219 225 227 227 216 215 229 234 233 235 236 237 239
320 320 306 295 262 232 228 227 221 215 216 221 226 230 234 232 229 227 225 223 224 225 224 225 228 230 226 222 220 220 220 223 223 217 211 210 211 215 218 218 219 218 216 217 213 210 213 215 211 208 214 220 223 220 214 215 222 227 234 235 235 239 242
305 308 310 319 309 229 217 210 208 210 213 218 224 229 233 231 227 225 223 221 221 222 222 222 223 224 221 215 213 212 213 219 219 209 206 209 209 212 215 214 215 214 213 214 212 209 209 209 208 208 210 215 217 211 209 213 217 225 237 242 242 246 248
286 281 282 291 301 232 200 200 206 213 218 222 225 229 231 229 225 224 224 223 221 219 222 222 217 214 212 207 206 207 209 216 216 204 202 209 209 211 213 212 212 212 210 211 209 206 206 205 204 205 206 211 213 209 206 210 214 222 234 243 248 252 250
282 269 264 263 258 244 224 220 221 223 223 225 227 228 228 225 222 220 220 222 224 225 228 226 216 208 207 204 203 204 206 210 211 205 205 208 208 208 210 210 210 210 210 209 207 204 202 202 203 205 206 209 210 209 205 204 211 215 220 231 243 248 246
292 275 266 259 251 241 235 233 233 231 231 231 231 231 229 226 224 223 223 224 227 232 236 234 226 215 207 202 199 199 203 208 210 208 208 209 209 208 210 211 210 211 212 210 205 200 198 200 201 202 206 206 206 208 205 205 212 215 214 220 228 231 233
305 288 274 263 254 245 238 235 236 235 236 238 238 236 231 225 223 224 227 227 227 232 237 236 231 220 206 200 198 198 205 209 208 209 210 211 211 210 211 212 210 212 215 212 205 200 201 205 202 198 200 203 205 208 208 209 213 216 217 219 222 223 226
315 301 284 271 261 251 243 240 241 240 240 242 243 238 231 224 221 222 222 223 223 226 231 229 225 218 210 206 205 204 207 208 207 209 212 213 213 212 211 210 208 209 210 207 205 201 203 207 204 200 202 205 208 210 210 212 215 218 220 220 222 224 226
326 318 299 282 271 260 251 246 245 245 244 245 247 245 237 229 225 223 223 223 219 215 220 222 218 212 207 205 204 203 205 206 205 207 210 211 211 210 208 205 204 205 203 202 203 202 204 207 206 206 208 210 213 215 216 218 220 221 220 219 222 226 228
334 332 321 303 284 266 255 249 247 247 247 248 250 248 243 235 226 223 223 222 215 209 212 216 213 207 203 203 203 199 199 202 202 205 207 205 204 205 205 202 201 203 203 203 204 205 208 211 211 211 212 215 218 220 221 224 226 228 228 227 231 235 238
337 335 333 326 311 285 265 253 247 246 244 245 246 245 242 233 222 218 221 220 214 208 206 207 208 206 204 205 203 197 196 199 197 198 201 200 199 202 203 201 201 204 206 206 207 208 211 215 216 215 216 218 221 222 224 228 231 234 237 239 242 243 246
334 334 336 335 330 307 276 255 247 248 244 241 244 247 243 229 218 216 216 213 210 207 203 202 205 208 206 205 201 195 196 199 195 194 198 201 202 202 203 202 203 206 210 211 211 212 215 217 218 218 220 221 223 225 229 233 236 239 241 243 246 247 248
328 330 334 336 336 321 284 251 238 242 247 247 246 243 229 216 216 216 210 207 206 205 204 200 202 208 209 206 202 196 195 196 195 194 196 200 203 204 203 204 205 207 210 213 214 215 217 218 218 221 222 223 226 228 231 234 236 238 240 243 249 253 256
324 325 329 335 341 335 299 257 242 242 249 253 250 238 213 203 209 210 208 207 204 201 203 203 201 206 210 208 203 199 197 196 195 195 194 195 198 201 202 204 207 209 210 213 216 217 218 219 220 223 225 228 232 234 234 235 236 238 244 250 256 261 265
323 324 328 337 346 349 329 280 268 260 248 245 245 228 200 189 191 198 205 208 203 195 196 199 200 205 212 209 203 202 203 202 200 200 199 199 199 201 205 208 210 210 209 212 217 218 220 222 223 226 230 232 234 235 234 235 237 243 253 260 264 268 271
326 326 331 342 356 4 5 333 303 275 234 213 214 206 195 189 191 199 208 209 200 191 189 194 202 209 215 212 208 209 210 210 208 206 205 206 205 204 208 213 213 211 210 214 219 220 221 224 226 229 232 233 233 234 235 238 244 252 261 267 270 273 276
334 339 347 351 358 9 11 1 341 304 218 207 211 206 203 207 209 209 208 201 192 190 192 197 205 209 213 216 215 213 211 209 211 213 212 210 208 207 212 215 214 213 213 215 219 220 222 226 229 230 232 233 235 238 243 249 256 263 269 273 275 276 280
335 350 12 15 15 15 14 12 3 346 239 213 217 218 222 221 210 201 194 184 182 190 197 200 205 209 212 215 216 214 211 208 210 217 220 216 212 212 215 218 218 218 215 213 217 221 224 226 229 231 233 236 241 247 254 260 265 269 272 275 277 279 282
327 341 21 32 31 24 19 22 20 9 329 211 212 223 237 230 212 199 192 183 181 187 192 197 204 210 213 214 214 214 212 208 213 222 225 220 216 217 220 223 226 224 219 217 220 224 225 227 230 234 237 242 247 253 259 264 269 273 276 277 278 279 279
321 316 8 33 33 27 25 30 32 29 25 204 203 216 237 231 216 207 200 194 191 190 191 198 206 210 212 213 212 210 207 208 217 226 228 225 225 227 228 227 227 225 223 223 224 225 226 229 232 236 238 242 248 255 263 271 276 278 278 276 273 269 265
329 309 342 45 58 54 44 37 33 29 26 355 225 238 241 230 222 215 210 205 202 201 201 202 203 204 206 208 210 209 207 210 218 224 228 231 232 231 230 228 225 225 226 225 222 223 226 230 235 238 241 246 254 264 273 277 278 275 271 267 261 258 258
339 327 331 46 80 65 48 44 44 31 20 354 257 241 238 227 220 216 214 212 209 210 211 210 210 210 209 209 211 212 213 219 225 228 230 235 237 236 235 233 230 230 232 231 230 231 232 236 240 244 247 253 263 270 271 268 267 267 267 267 265 265 269
Height
3146 3145 3144 3144 3144 3144 3143 3143 3143 3142 3142 3141 3141 3140 3139 3139 3139 3139 3139 3139 3139 3140 3141 3142 3142 3143 3145 3146 3147 3148 3149 3149 3149 3150 3151 3152 3153 3154 3155 3156 3157 3158 3159 3160 3160 3161 3162 3163 3164 3164 3165 3166 3166 3167 3168 3168 3169 3169 3169 3169 3169 3170 3170
3145 3144 3143 3143 3142 3142 3142 3142 3141 3141 3140 3140 3139 3139 3139 3138 3138 3137 3137 3137 3137 3137 3139 3140 3140 3141 3143 3144 3145 3146 3147 3147 3148 3148 3149 3150 3151 3152 3154 3155 3156 3157 3158 3159 3159 3160 3161 3162 3163 3163 3164 3165 3166 3167 3167 3167 3168 3168 3169 3169 3169 3169 3169
3143 3142 3142 3142 3141 3141 3141 3140 3140 3139 3138 3138 3137 3137 3137 3137 3137 3136 3136 3135 3135 3135 3137 3138 3139 3140 3141 3142 3143 3144 3145 3145 3146 3146 3147 3148 3149 3151 3153 3154 3155 3157 3158 3158 3158 3159 3160 3161 3162 3163 3163 3164 3165 3165 3166 3167 3167 3167 3168 3168 3168 3168 3169
3141 3141 3140 3140 3140 3139 3138 3138 3137 3137 3136 3136 3136 3135 3136 3135 3135 3135 3134 3133 3133 3134 3135 3137 3137 3139 3140 3141 3142 3142 3143 3143 3144 3144 3145 3147 3148 3150 3152 3152 3154 3156 3157 3157 3157 3158 3159 3160 3161 3162 3162 3163 3164 3164 3165 3166 3166 3166 3167 3167 3167 3168 3168
3140 3139 3138 3138 3137 3136 3135 3134 3134 3134 3135 3135 3134 3134 3135 3134 3134 3134 3133 3132 3132 3132 3134 3136 3136 3137 3139 3140 3140 3140 3141 3141 3142 3143 3144 3145 3147 3149 3150 3150 3152 3155 3155 3156 3157 3158 3158 3159 3160 3161 3161 3162 3163 3164 3164 3165 3165 3166 3166 3166 3167 3167 3168
3137 3137 3136 3134 3133 3132 3132 3131 3132 3133 3134 3134 3133 3133 3134 3133 3132 3132 3132 3131 3131 3131 3132 3135 3136 3137 3137 3138 3138 3139 3139 3140 3140 3141 3143 3145 3146 3147 3147 3148 3151 3153 3154 3155 3157 3157 3157 3158 3159 3160 3161 3161 3162 3163 3164 3164 3165 3165 3166 3166 3166 3167 3167
3134 3134 3133 3131 3129 3129 3130 3130 3131 3132 3133 3133 3132 3132 3133 3133 3131 3130 3130 3130 3129 3128 3129 3132 3135 3136 3136 3136 3137 3138 3138 3139 3140 3140 3141 3142 3143 3143 3145 3147 3150 3151 3153 3154 3155 3155 3156 3157 3158 3159 3160 3160 3161 3162 3163 3163 3164 3165 3165 3165 3166 3166 3167
3130 3130 3129 3127 3125 3126 3128 3128 3129 3130 3131 3131 3131 3131 3131 3131 3130 3128 3128 3127 3127 3127 3128 3130 3132 3134 3135 3135 3136 3137 3138 3139 3139 3139 3140 3139 3140 3141 3142 3145 3148 3149 3150 3152 3153 3153 3155 3156 3157 3158 3159 3159 3160 3161 3162 3162 3163 3164 3164 3165 3165 3166 3166
3125 3124 3124 3122 3121 3123 3125 3126 3127 3127 3128 3128 3128 3128 3128 3128 3127 3126 3126 3126 3126 3127 3128 3128 3129 3131 3133 3134 3135 3135 3137 3138 3138 3137 3137 3136 3137 3138 3140 3143 3145 3147 3148 3149 3150 3152 3153 3155 3156 3157 3157 3158 3159 3160 3160 3161 3162 3163 3163 3164 3165 3165 3166
3120 3119 3119 3117 3118 3120 3122 3122 3123 3123 3124 3124 3125 3125 3124 3125 3124 3123 3124 3125 3126 3126 3126 3126 3127 3128 3130 3132 3133 3133 3134 3136 3136 3136 3135 3134 3135 3136 3138 3141 3143 3144 3145 3146 3148 3150 3152 3153 3155 3156 3156 3157 3158 3158 3158 3160 3160 3161 3162 3163 3164 3164 3165
3115 3114 3113 3113 3114 3117 3117 3117 3118 3119 3120 3121 3121 3121 3121 3121 3121 3121 3122 3122 3123 3124 3124 3124 3125 3125 3126 3129 3131 3132 3132 3133 3135 3135 3134 3133 3133 3135 3137 3140 3142 3143 3143 3144 3146 3148 3150 3152 3153 3154 3155 3156 3157 3157 3158 3158 3158 3159 3161 3162 3163 3163 3164
3111 3109 3108 3109 3110 3112 3112 3112 3113 3115 3116 3117 3118 3118 3118 3118 3119 3119 3119 3120 3121 3121 3122 3122 3122 3123 3124 3126 3129 3130 3130 3131 3133 3134 3133 3132 3132 3134 3137 3139 3140 3141 3142 3143 3145 3147 3149 3151 3152 3153 3154 3155 3155 3156 3157 3158 3158 3158 3160 3161 3162 3162 3163
3107 3104 3104 3104 3105 3106 3107 3107 3109 3111 3113 3114 3115 3116 3116 3116 3116 3116 3117 3118 3119 3120 3120 3120 3121 3121 3122 3124 3127 3128 3128 3129 3130 3132 3133 3133 3133 3134 3136 3138 3139 3139 3140 3142 3144 3146 3148 3150 3151 3152 3153 3153 3154 3155 3156 3157 3157 3158 3159 3160 3161 3161 3162
3104 3100 3099 3099 3100 3102 3103 3104 3106 3108 3109 3111 3112 3113 3113 3114 3115 3115 3115 3116 3118 3118 3119 3120 3121 3121 3121 3122 3124 3125 3126 3127 3128 3130 3132 3133 3132 3133 3134 3136 3138 3139 3140 3142 3144 3145 3147 3148 3150 3151 3151 3152 3153 3154 3155 3157 3157 3157 3159 3159 3160 3161 3161
3101 3098 3096 3096 3097 3098 3100 3101 3103 3105 3107 3108 3109 3110 3111 3112 3113 3113 3113 3114 3115 3116 3118 3119 3120 3120 3121 3121 3122 3123 3124 3125 3126 3128 3130 3130 3131 3132 3134 3136 3137 3138 3140 3142 3143 3145 3146 3147 3148 3150 3150 3151 3152 3153 3154 3156 3156 3156 3158 3159 3159 3160 3160
3100 3097 3095 3095 3094 3095 3097 3099 3101 3103 3105 3106 3107 3108 3109 3110 3111 3111 3112 3112 3113 3114 3116 3118 3118 3119 3120 3121 3122 3123 3123 3124 3125 3127 3127 3128 3130 3132 3134 3136 3137 3139 3140 3141 3143 3144 3145 3146 3147 3149 3150 3150 3151 3152 3153 3154 3155 3156 3157 3158 3158 3159 3159
3099 3097 3095 3094 3093 3093 3095 3097 3099 3101 3103 3104 3105 3106 3107 3107 3108 3109 3109 3109 3110 3112 3114 3115 3116 3118 3119 3120 3121 3122 3122 3123 3125 3125 3125 3127 3129 3132 3134 3135 3137 3138 3139 3140 3141 3143 3144 3145 3146 3148 3149 3149 3149 3151 3152 3153 3154 3155 3156 3156 3157 3157 3158
3099 3097 3095 3094 3093 3093 3094 3095 3097 3099 3101 3102 3103 3104 3104 3105 3106 3106 3106 3106 3107 3109 3110 3112 3114 3116 3118 3119 3120 3120 3121 3122 3123 3123 3124 3125 3128 3131 3133 3135 3136 3137 3138 3139 3140 3141 3142 3144 3145 3147 3148 3148 3149 3150 3151 3152 3153 3154 3154 3155 3156 3156 3156
3098 3096 3095 3094 3094 3094 3094 3095 3097 3098 3099 3100 3100 3100 3101 3102 3103 3104 3104 3104 3104 3106 3107 3109 3113 3116 3117 3118 3119 3119 3120 3122 3123 3123 3123 3125 3128 3130 3132 3134 3135 3136 3137 3138 3139 3140 3141 3142 3144 3145 3146 3147 3148 3149 3150 3151 3152 3153 3153 3154 3154 3155 3155
3096 3095 3094 3094 3093 3093 3094 3095 3095 3096 3097 3097 3097 3096 3097 3098 3099 3100 3102 3103 3104 3105 3105 3107 3112 3115 3116 3116 3117 3118 3119 3121 3122 3122 3123 3125 3127 3129 3131 3133 3134 3135 3135 3136 3137 3139 3140 3141 3142 3144 3145 3146 3147 3148 3149 3150 3151 3152 3152 3153 3153 3154 3154
3095 3094 3093 3092 3092 3092 3093 3093 3093 3093 3093 3093 3093 3093 3094 3094 3095 3097 3101 3103 3104 3105 3105 3107 3110 3113 3114 3115 3116 3116 3118 3119 3120 3122 3123 3125 3127 3128 3130 3131 3132 3133 3133 3134 3135 3137 3138 3139 3140 3142 3143 3145 3146 3147 3148 3149 3150 3151 3151 3152 3152 3153 3153
3094 3093 3092 3091 3091 3091 3091 3090 3090 3090 3091 3091 3091 3092 3092 3092 3094 3096 3099 3101 3103 3104 3105 3107 3109 3111 3113 3114 3114 3115 3117 3118 3120 3121 3123 3124 3126 3127 3128 3130 3131 3132 3133 3134 3135 3136 3137 3138 3139 3140 3142 3144 3145 3146 3147 3148 3149 3150 3150 3151 3151 3152 3152
3093 3092 3091 3090 3089 3089 3088 3088 3088 3088 3089 3089 3090 3091 3091 3092 3093 3095 3097 3099 3101 3103 3105 3106 3108 3110 3111 3112 3113 3115 3117 3118 3120 3121 3122 3124 3125 3126 3127 3129 3130 3132 3133 3134 3134 3135 3137 3138 3139 3140 3141 3143 3144 3145 3146 3147 3148 3148 3149 3149 3150 3150 3151
3093 3091 3090 3089 3088 3087 3087 3087 3087 3087 3087 3088 3088 3089 3090 3091 3092 3093 3095 3098 3099 3101 3104 3105 3107 3108 3110 3111 3113 3115 3117 3118 3119 3120 3122 3123 3124 3126 3127 3128 3130 3131 3132 3133 3134 3135 3136 3137 3138 3139 3141 3142 3143 3144 3144 3145 3146 3147 3147 3148 3148 3149 3149
3092 3091 3090 3088 3087 3086 3086 3085 3086 3086 3086 3086 3087 3088 3088 3089 3090 3092 3094 3096 3098 3099 3102 3104 3105 3107 3109 3111 3113 3115 3116 3118 3119 3120 3121 3123 3124 3125 3126 3127 3128 3130 3131 3132 3133 3134 3135 3136 3137 3138 3139 3140 3141 3142 3143 3144 3144 3145 3146 3146 3147 3147 3147
3092 3091 3089 3087 3086 3085 3085 3084 3084 3085 3085 3085 3085 3086 3087 3088 3089 3091 3092 3095 3096 3098 3100 3102 3104 3106 3107 3109 3111 3114 3116 3117 3118 3119 3120 3122 3123 3124 3125 3126 3127 3128 3129 3130 3131 3132 3134 3135 3136 3137 3138 3139 3140 3141 3141 3142 3143 3144 3144 3144 3145 3145 3145
3091 3090 3089 3087 3086 3084 3084 3083 3083 3083 3084 3084 3084 3085 3086 3087 3088 3090 3091 3093 3095 3097 3098 3100 3103 3104 3106 3108 3110 3113 3115 3115 3117 3118 3119 3120 3121 3122 3123 3124 3125 3127 3128 3129 3130 3131 3132 3133 3134 3135 3136 3137 3138 3139 3140 3141 3141 3142 3142 3143 3143 3143 3144
3090 3090 3089 3087 3085 3084 3083 3082 3082 3082 3083 3083 3083 3084 3085 3086 3087 3089 3091 3092 3094 3096 3097 3099 3101 3103 3105 3107 3109 3111 3113 3114 3115 3117 3117 3118 3120 3121 3122 3123 3124 3125 3126 3128 3129 3130 3131 3132 3133 3134 3135 3136 3137 3137 3138 3139 3140 3140 3140 3141 3141 3141 3141
3090 3089 3088 3087 3085 3084 3083 3082 3082 3082 3082 3082 3082 3083 3084 3086 3087 3088 3090 3091 3092 3094 3096 3097 3099 3102 3104 3105 3108 3110 3112 3113 3114 3115 3116 3117 3118 3120 3121 3122 3122 3123 3125 3126 3127 3128 3129 3130 3131 3132 3133 3134 3135 3136 3136 3137 3137 3138 3138 3138 3138 3139 3139
3090 3089 3088 3087 3085 3084 3082 3082 3082 3081 3081 3081 3082 3082 3083 3085 3086 3086 3088 3090 3091 3094 3096 3096 3098 3101 3102 3104 3106 3109 3110 3112 3112 3113 3114 3116 3117 3118 3119 3120 3121 3122 3123 3124 3125 3126 3127 3128 3129 3130 3131 3132 3133 3133 3134 3134 3135 3135 3135 3136 3136 3136 3136
3089 3088 3087 3086 3085 3084 3083 3082 3081 3081 3081 3081 3081 3082 3083 3084 3085 3086 3087 3088 3090 3093 3095 3095 3097 3100 3102 3103 3105 3107 3108 3110 3111 3112 3113 3114 3115 3117 3117 3118 3119 3121 3122 3122 3123 3124 3125 3126 3127 3128 3129 3129 3130 3131 3131 3132 3132 3133 3133 3133 3133 3133 3132
3089 3088 3087 3086 3085 3084 3083 3082 3081 3080 3081 3081 3081 3082 3083 3084 3085 3085 3086 3088 3089 3091 3093 3094 3097 3099 3101 3102 3104 3105 3107 3109 3110 3111 3112 3113 3114 3115 3116 3117 3118 3119 3120 3120 3121 3122 3123 3124 3125 3125 3126 3127 3127 3128 3129 3129 3130 3130 3130 3129 3129 3129 3129
3088 3087 3087 3085 3085 3084 3083 3081 3080 3080 3080 3081 3081 3082 3083 3083 3084 3085 3086 3087 3089 3091 3092 3094 3096 3098 3099 3101 3103 3104 3105 3107 3109 3109 3110 3111 3112 3113 3114 3115 3116 3116 3117 3118 3119 3119 3120 3121 3122 3123 3123 3124 3125 3125 3126 3126 3126 3126 3126 3125 3125 3125 3125
3089 3088 3087 3085 3085 3084 3083 3082 3081 3080 3080 3081 3082 3082 3083 3083 3084 3085 3086 3087 3089 3091 3092 3094 3096 3097 3099 3100 3102 3103 3104 3106 3107 3108 3108 3109 3110 3111 3112 3113 3114 3114 3115 3115 3116 3117 3118 3118 3119 3120 3120 3121 3122 3122 3122 3122 3122 3122 3121 3121 3121 3121 3120
3089 3088 3087 3085 3085 3084 3083 3083 3082 3081 3081 3081 3082 3083 3083 3083 3084 3084 3086 3087 3088 3090 3092 3093 3095 3096 3098 3099 3100 3102 3103 3104 3106 3107 3107 3108 3109 3110 3111 3111 3111 3112 3113 3113 3114 3115 3115 3116 3116 3117 3117 3117 3118 3118 3119 3119 3118 3117 3117 3117 3116 3116 3117
3088 3088 3087 3085 3085 3085 3084 3083 3083 3082 3082 3082 3083 3083 3083 3083 3084 3084 3085 3086 3088 3089 3091 3093 3094 3096 3097 3098 3099 3101 3102 3103 3104 3105 3106 3106 3107 3108 3108 3109 3109 3110 3111 3111 3111 3111 3112 3112 3113 3113 3114 3114 3114 3115 3115 3115 3114 3113 3113 3113 3113 3113 3113
3087 3087 3086 3085 3085 3085 3085 3084 3084 3083 3083 3083 3083 3083 3084 3084 3084 3085 3086 3087 3088 3089 3090 3092 3094 3095 3096 3097 3098 3099 3100 3101 3102 3102 3103 3104 3104 3105 3106 3106 3107 3107 3108 3108 3108 3108 3108 3109 3109 3110 3110 3110 3111 3111 3111 3111 3111 3111 3111 3111 3111 3111 3110